SCP
0 -0 -0 -0 0 -0 -0 -0 -0 0 0 0 0 0 0 0 0 0 0 0 0 0 0 0 0 0 0 0 0 0 0 0 0 0 0 0 0 0 0 0 0 0 0 0 0 0 0 0 0
0 -0 0 -0 0 -0 -0 -0 0 0 0 0 0 0 0 0 0 0 0 0 0 0 0 0 0 0 0 0 0 0 0 0 0 0 0 0 0 0 0 0 0 0 0 0 0 0 0 0 0
0 0 -0 0 0 0 0 -0 0 -0 0 0 0 0 0 0 0 0 0 0 0 0 0 0 0 0 0 0 0 0 0 0 0 0 0 0 0 0 0 0 0 0 0 0 0 0 0 0 0
0 0 0 0 0 0 0 -0 -0 0 0 0 0 0 0 -0 0 0 0 0 0 0 0 0 0 0 0 0 0 0 0 0 0 0 0 0 0 0 0 0 0 0 0 0 0 0 0 0 0
0 0 0 0 0 0 0 -0 0 -0 0 -0 0 0 0 0 0 0 0 0 0 0 0 1 1 0 0 0 0 0 0 0 0 0 0 0 0 0 0 0 0 0 0 0 0 0 0 0 0
-0 0 -0 0 0 0 0 0 -0 -0 -0 -0 0 0 0 0 0 0 0 0 0 0 0 1 1 1 0 0 0 0 0 0 0 0 0 0 0 0 0 0 0 0 0 0 0 0 0 0 0
0 0 0 0 0 0 0 0 0 0 0 0 0 0 0 0 0 0 0 0 0 0 0 0 0 0 0 0 0 0 0 0 0 0 0 0 0 0 0 0 0 0 0 0 0 0 0 0 0
0 0 0 0 0 0 0 0 0 0 0 0 0 0 0 0 0 0 0 0 0 0 0 0 0 0 0 0 0 0 0 0 0 0 0 0 0 0 0 0 0 0 0 0 0 0 0 0 0
0 0 0 0 0 0 0 0 0 0 0 0 0 0 0 0 0 0 0 0 0 0 0 0 0 0 0 0 0 0 0 0 0 0 0 0 0 0 0 0 0 0 0 0 0 0 0 0 0
0 0 0 0 0 0 0 0 0 0 0 0 0 0 0 0 0 0 0 0 0 0 0 0 0 0 0 0 0 0 0 0 0 0 0 0 0 0 0 0 0 0 0 0 0 0 0 0 0
0 0 0 0 0 0 0 0 0 0 0 0 0 -0 0 0 0 0 0 0 0 0 0 0 0 0 0 0 0 0 0 0 0 0 0 0 0 0 0 0 0 0 0 0 0 0 0 0 0
0 0 0 0 0 0 0 0 0 0 0 0 -0 -0 0 0 0 0 0 0 0 0 0 0 0 0 0 0 0 0 0 0 0 0 0 0 0 0 0 0 0 0 0 0 0 0 0 0 0
0 0 0 0 0 0 0 0 0 0 0 -0 -0 -0 0 0 0 0 0 0 0 0 0 0 0 0 0 0 0 0 0 0 0 0 0 0 0 0 0 0 0 0 0 0 0 0 0 0 0
0 0 0 0 0 0 0 0 0 0 0 -0 -0 -0 0 0 0 0 0 0 0 0 0 0 0 0 0 0 0 0 0 0 0 0 0 0 0 0 0 0 0 0 0 0 0 0 0 0 0
0 0 0 0 0 0 0 0 0 0 -0 -0 0 0 0 0 0 0 0 0 0 0 0 0 0 0 0 0 0 0 0 0 0 0 0 0 0 0 0 0 0 0 0 0 0 0 0 0 0
0 0 0 0 0 0 0 -0 0 0 -0 0 0 0 0 0 0 0 0 0 0 0 0 0 0 0 0 0 0 0 0 0 0 0 0 0 0 0 0 0 0 0 0 0 0 0 0 0 0
0 0 0 0 0 0 0 0 0 0 -0 0 0 0 0 0 0 0 0 0 0 0 0 0 0 0 0 0 0 0 0 0 0 0 0 0 0 0 0 0 0 0 0 0 0 0 0 0 0
0 0 0 0 0 0 0 -0 0 0 -0 -0 0 0 0 0 0 0 0 0 0 0 0 0 0 0 0 0 0 0 0 0 0 0 0 0 0 0 0 0 0 0 0 0 0 0 0 0 0
0 0 0 0 0 0 0 0 0 0 0 0 0 -0 0 0 0 0 0 0 0 0 0 0 0 0 0 0 0 0 0 0 0 0 0 0 0 0 0 0 0 0 0 0 0 0 0 0 0
0 0 0 0 0 0 0 0 0 0 0 -0 0 -0 0 0 0 0 0 0 0 0 0 0 0 0 0 0 0 0 0 0 0 0 0 0 0 0 0 0 0 0 0 0 0 0 0 0 0
0 0 0 0 0 0 0 0 0 0 0 0 0 0 0 0 0 0 0 0 0 0 0 0 0 0 0 0 0 0 0 0 0 0 0 0 0 0 0 0 0 0 0 0 0 0 0 0 0
0 0 0 0 0 0 0 0 0 0 0 0 0 0 0 0 0 0 0 0 0 0 0 0 0 0 0 0 0 0 0 0 0 0 0 0 0 0 0 0 0 0 0 0 0 0 0 0 0
0 0 0 0 0 0 0 0 0 0 0 0 0 0 0 0 0 0 0 0 0 0 0 -0 -0 0 0 0 0 0 0 0 0 0 0 0 0 0 0 0 0 0 0 0 0 0 0 0 0
0 0 0 0 0 0 0 0 0 0 0 0 0 0 0 0 0 0 0 0 0 0 0 0 -0 0 0 0 0 0 0 0 0 0 0 0 0 0 0 0 0 0 0 0 0 0 0 0 0
0 0 0 0 -0 0 0 0 0 0 0 0 0 0 0 0 -0 0 0 0 0 0 0 0 0 0 0 0 0 0 0 0 0 0 0 0 0 0 0 0 0 0 0 0 0 0 0 0 0
0 0 0 0 0 0 0 0 0 0 0 0 0 0 0 0 0 -0 0 0 0 0 0 0 0 0 0 0 0 0 0 0 0 0 0 0 0 0 0 0 0 0 0 0 0 0 0 0 0
0 0 0 0 0 0 0 0 0 0 0 0 0 0 0 0 0 0 0 0 0 0 0 0 0 0 0 0 0 0 0 0 0 0 0 0 0 0 0 0 0 0 0 0 0 0 0 0 0
0 0 0 0 0 0 0 0 0 0 0 0 0 0 0 0 0 0 0 0 0 0 0 0 0 0 0 0 0 0 0 0 0 0 0 0 0 0 0 0 0 0 0 0 0 0 0 0 0
0 0 0 0 0 0 0 0 0 0 0 0 0 0 0 0 0 0 0 0 0 0 0 0 0 0 0 0 0 0 0 0 0 0 0 0 0 0 0 0 0 0 0 0 0 0 0 0 0
0 0 0 0 0 0 0 0 0 0 0 0 0 0 0 0 0 0 0 0 0 0 0 0 0 0 0 0 0 0 0 0 0 0 0 0 0 0 0 0 0 0 0 0 0 0 0 0 0
Wind_Speed_500mb
13 17 18 8 8 11 4 7 3 4 4 4 15 11 13 2 1 4 21 17 16 13 15 13 10 9 9 10 13 16 19 20 20 18 18 17 16 18 22 26 30 32 30 28 27 28 27 25 24
12 11 9 6 10 8 8 4 2 1 18 38 28 16 11 6 9 21 21 17 9 11 12 12 12 11 10 10 11 14 19 22 20 19 17 15 16 18 23 26 29 28 27 26 23 22 20 22 22
18 11 9 8 7 6 4 9 9 17 14 1 10 12 7 5 13 13 19 13 8 8 9 7 9 10 9 8 10 18 25 24 16 12 14 13 13 18 22 22 19 19 20 18 14 15 18 21 20
5 7 13 9 6 2 7 10 15 7 13 14 18 12 12 7 7 15 20 13 8 4 3 6 9 11 11 9 11 19 29 24 18 17 15 13 14 16 19 18 17 21 21 21 22 19 14 13 15
8 8 10 9 6 4 3 16 6 2 3 3 10 6 9 18 22 21 17 12 5 3 4 4 6 7 8 10 10 21 26 28 22 16 15 14 14 14 16 12 14 19 19 20 20 18 13 12 12
6 6 10 5 4 5 6 10 6 11 9 17 16 11 8 18 20 20 14 7 6 8 9 9 9 8 11 11 14 19 23 28 31 23 18 15 17 17 15 9 13 16 15 16 19 16 14 13 10
10 8 3 6 3 4 5 4 5 6 7 7 3 6 5 20 15 14 10 6 8 12 11 13 14 11 8 9 13 18 25 31 35 26 15 14 18 22 17 16 16 14 19 22 24 24 21 18 16
8 11 6 3 6 3 12 7 21 7 7 18 14 12 12 29 20 14 4 8 14 17 16 13 12 11 9 12 12 14 25 31 35 23 13 15 20 22 19 22 26 29 30 31 28 25 24 20 17
6 9 7 13 12 9 21 9 15 5 11 5 5 18 23 33 24 10 10 14 18 20 19 16 10 12 14 11 13 18 23 31 30 24 16 16 21 21 21 24 27 32 32 28 24 23 22 20 15
6 7 15 16 12 10 21 15 20 13 13 4 17 26 37 33 23 13 14 15 17 20 21 21 13 12 17 15 14 15 20 30 28 25 25 21 21 19 22 26 29 31 25 23 26 28 27 21 14
3 5 9 11 20 19 23 16 17 20 6 24 45 48 41 32 22 15 14 16 17 20 21 21 12 9 19 17 14 13 20 28 25 23 26 25 26 21 23 27 29 23 25 27 31 28 29 25 17
2 2 13 13 21 32 23 15 6 36 10 30 36 37 39 33 23 16 12 16 16 16 15 14 13 11 15 14 13 16 22 25 24 22 28 27 26 23 25 29 31 29 30 33 36 29 27 20 18
3 5 11 10 27 26 24 27 12 40 12 31 44 44 38 32 26 19 11 16 15 15 15 13 10 13 18 19 20 21 23 20 19 22 30 29 27 25 25 30 30 30 31 33 36 35 27 18 17
4 9 5 10 25 19 12 4 6 28 25 36 44 42 36 33 25 21 17 15 14 17 16 14 11 13 18 21 22 23 17 15 13 22 33 36 33 30 29 30 32 30 32 37 40 37 29 21 16
9 8 9 1 15 4 11 10 25 32 46 48 48 43 39 36 31 29 23 19 15 18 18 14 11 10 11 17 19 16 9 10 11 19 29 35 33 32 31 31 30 32 36 39 34 29 27 23 20
10 9 4 6 22 7 20 22 31 36 56 59 56 51 50 47 40 33 31 27 21 17 16 17 13 9 10 15 14 6 2 5 11 16 25 31 30 31 32 32 31 33 37 37 34 31 27 24 17
10 5 11 12 23 8 12 18 14 45 58 56 61 58 57 53 51 47 42 36 27 21 16 16 16 12 10 17 17 15 10 8 12 14 19 26 25 28 33 36 32 34 34 36 34 32 30 26 16
8 7 7 11 14 12 14 43 8 34 49 53 64 62 62 62 64 53 47 42 35 26 19 15 19 15 14 17 21 22 19 14 15 16 17 21 22 25 31 35 36 32 32 32 32 30 27 26 10
4 6 9 7 7 12 21 27 18 32 45 33 50 71 72 69 65 64 57 50 44 36 25 16 19 16 15 18 18 22 23 21 17 16 20 20 21 24 29 35 40 34 31 31 33 32 29 23 11
6 6 10 2 4 8 0 20 4 13 36 48 55 67 72 74 74 73 66 62 57 45 28 20 18 17 13 17 19 22 23 26 22 22 22 21 22 25 24 30 36 33 28 27 29 31 30 29 26
6 8 3 4 4 4 9 14 9 6 8 36 55 62 68 76 80 83 77 72 67 52 33 25 21 18 15 17 21 25 30 29 30 26 25 22 22 24 23 28 35 33 27 26 26 28 29 31 26
7 6 9 8 7 5 6 7 7 7 14 18 44 58 74 77 76 79 83 87 75 58 35 30 28 23 18 19 22 25 28 30 30 28 28 25 23 21 22 25 30 32 28 25 23 23 24 26 28
6 7 10 7 7 3 9 6 14 10 11 12 29 54 53 62 69 84 90 77 77 54 22 30 37 33 27 20 21 25 27 30 30 29 29 25 25 23 23 24 27 28 28 25 23 25 24 27 25
11 9 14 8 5 8 11 5 11 7 7 16 16 28 32 43 49 48 53 57 53 42 35 23 48 41 31 21 21 23 23 25 31 33 32 27 26 26 27 26 28 28 26 28 24 24 23 28 27
8 11 6 9 11 7 9 3 16 12 10 9 27 43 50 54 58 43 29 45 39 44 49 16 22 50 31 18 18 17 16 20 23 24 24 28 27 25 19 23 26 27 28 28 26 24 27 31 32
6 8 10 3 2 9 8 8 10 8 6 10 18 30 39 53 60 50 27 29 34 42 51 21 31 41 32 17 14 15 16 17 16 19 22 22 22 20 19 24 26 26 28 30 32 34 34 35 37
3 3 6 12 6 4 6 13 13 4 2 10 18 27 39 53 58 52 23 18 24 40 44 24 26 23 25 16 14 13 14 15 14 18 21 22 23 23 23 26 28 29 32 34 37 40 40 40 42
5 8 5 7 0 6 9 10 10 9 11 6 15 32 41 44 54 50 26 16 11 28 37 26 5 7 10 15 18 16 17 16 18 21 22 24 23 25 26 28 31 33 34 36 38 42 42 45 47
2 2 11 9 7 8 3 13 9 9 14 12 13 22 31 35 43 36 24 9 10 20 42 49 21 3 5 15 13 21 22 23 24 26 26 26 29 28 31 33 35 37 38 37 41 45 48 51 53
2 7 9 9 8 4 7 13 5 5 12 5 7 15 24 30 32 27 18 11 6 15 29 49 40 19 12 9 14 22 27 31 31 26 26 26 32 33 35 36 37 37 39 40 43 48 51 58 63
Wind_Direction_500mb
134 126 113 89 56 65 57 12 63 47 62 80 118 124 125 75 98 166 132 122 108 64 74 65 51 28 6 1 1 357 351 346 339 336 329 327 335 334 331 330 322 315 308 302 295 292 288 283 279
98 102 94 93 78 55 313 346 39 309 119 98 96 104 70 55 84 128 132 132 106 92 74 51 40 26 13 13 6 3 352 344 334 326 316 322 334 336 333 330 327 324 315 304 293 290 285 283 286
58 31 31 79 98 125 114 41 32 143 131 153 114 89 91 114 121 122 131 125 118 84 55 37 27 15 5 349 352 4 356 339 329 324 313 324 332 337 340 340 351 2 7 360 335 301 289 285 289
22 65 63 68 83 226 139 149 151 126 85 124 116 79 86 69 94 130 143 137 123 57 356 3 8 360 350 339 347 358 4 355 339 320 316 319 321 330 341 348 24 22 16 14 8 360 338 315 287
27 71 65 83 15 5 83 138 187 325 332 87 117 97 68 83 127 134 141 136 162 274 283 331 340 337 323 318 336 354 4 5 357 330 318 319 308 322 334 348 7 8 6 7 3 5 359 352 337
46 64 56 71 51 7 37 77 44 44 67 88 88 77 55 115 149 139 150 167 206 262 270 274 271 274 295 308 326 348 2 0 359 342 315 317 312 324 326 317 338 353 354 360 0 347 325 322 322
81 66 71 97 79 46 146 66 69 63 40 18 102 68 121 154 163 157 174 211 268 292 284 295 290 277 276 294 327 355 355 359 358 353 332 319 320 328 333 327 318 335 326 325 330 320 312 312 302
79 91 69 8 185 177 149 141 153 162 197 140 141 172 182 176 169 171 194 293 304 308 314 317 307 269 266 296 323 341 350 358 1 358 335 320 318 317 311 313 320 317 322 322 321 316 309 304 299
104 69 154 193 170 201 167 143 170 229 161 184 210 189 185 172 177 186 263 291 311 322 324 330 320 243 249 279 313 327 347 356 2 2 350 334 318 306 303 307 314 316 317 318 318 315 315 313 292
87 103 213 185 183 183 167 167 170 161 161 108 147 170 168 176 186 223 272 300 316 326 325 327 319 240 243 283 293 328 344 351 359 358 360 347 333 315 312 317 320 321 320 320 315 311 307 303 285
107 172 166 209 176 168 158 178 167 164 225 191 166 170 179 186 197 232 285 320 326 328 318 315 310 246 246 273 292 322 334 345 355 357 358 353 347 335 319 323 332 334 327 322 321 314 310 296 281
324 280 171 177 186 158 162 173 219 188 235 218 193 180 182 193 209 242 299 316 325 315 313 323 304 275 245 249 286 313 327 338 346 358 359 354 349 335 330 335 337 333 328 328 331 328 322 308 278
56 347 203 203 182 174 173 184 188 199 267 196 184 184 192 201 217 235 280 301 314 328 334 322 302 255 261 271 289 307 316 330 342 360 1 358 353 345 335 337 342 340 333 332 336 336 330 316 275
95 66 358 177 168 174 165 0 218 222 207 186 190 196 207 219 234 243 260 302 322 338 329 317 301 272 262 270 279 294 303 325 351 8 2 3 357 350 345 344 341 345 347 343 341 339 335 325 308
79 71 6 96 174 188 170 266 230 220 193 191 198 209 219 232 240 251 254 282 307 328 326 317 307 286 263 258 271 282 291 335 2 3 1 4 2 2 360 356 356 353 354 350 348 346 341 325 315
61 38 34 254 159 211 157 263 223 212 188 194 202 212 223 233 242 247 253 261 273 299 320 317 311 296 255 242 257 247 321 333 348 346 352 1 4 8 11 1 358 357 358 360 355 355 357 347 330
17 205 210 329 197 139 189 277 325 199 194 196 207 216 228 236 241 242 246 251 260 277 305 325 319 296 254 237 246 254 257 292 299 313 334 351 1 7 9 7 2 358 360 2 4 2 0 2 2
209 221 224 216 213 191 213 253 335 202 200 204 209 222 230 241 247 246 247 248 249 259 281 313 319 304 263 249 254 261 262 274 289 290 310 337 348 358 2 3 2 360 359 2 7 11 12 8 30
191 198 244 225 212 156 231 266 251 239 219 218 221 225 232 243 251 252 246 247 245 244 257 291 313 301 274 266 269 263 270 265 278 291 290 314 328 341 350 357 359 358 357 2 11 11 18 26 23
148 255 268 114 12 160 68 268 331 283 223 215 227 235 240 247 252 254 253 246 244 242 248 269 292 304 291 282 272 262 264 258 264 275 277 300 319 327 334 346 355 356 356 358 3 13 15 20 24
217 201 107 58 45 89 347 313 350 333 239 222 237 249 251 255 258 258 254 252 246 239 244 269 283 296 304 283 273 266 264 270 271 279 275 291 306 319 322 337 350 354 351 350 354 5 16 20 16
332 243 122 117 60 278 11 279 314 306 296 246 244 249 254 259 263 265 260 251 244 239 242 266 270 285 305 295 280 275 264 275 281 281 278 294 303 310 310 324 343 353 348 346 351 353 360 5 13
291 61 92 96 130 107 354 56 275 338 315 283 261 261 266 272 276 276 265 257 245 224 224 261 273 276 287 303 292 282 285 283 284 289 283 299 305 314 310 307 329 341 350 344 344 358 357 350 348
120 55 39 53 70 21 334 84 294 299 290 308 313 319 323 330 328 319 268 249 236 220 218 184 262 258 270 300 311 295 292 291 291 291 287 301 307 312 320 305 317 324 330 341 330 333 347 348 342
85 65 353 3 8 241 300 22 246 289 311 272 298 322 335 344 350 347 285 239 222 205 198 146 234 248 250 277 309 307 308 309 300 302 301 305 309 314 324 313 312 313 318 320 330 320 316 317 320
40 138 145 231 263 270 318 244 262 230 303 318 319 329 340 347 355 357 315 261 223 203 191 209 203 236 240 250 290 317 324 327 312 317 306 309 321 320 320 317 322 309 309 314 307 305 308 308 307
189 42 148 105 25 40 263 295 319 272 279 347 342 340 342 354 358 358 336 272 225 200 190 237 250 247 234 236 269 300 321 329 334 334 330 330 332 331 325 321 320 315 311 308 304 303 303 299 296
134 146 34 14 163 287 291 285 244 310 292 303 327 330 352 3 7 9 2 329 261 229 199 230 281 70 227 242 261 306 305 314 328 324 332 335 336 328 323 321 318 316 313 309 305 303 302 298 299
83 340 58 116 124 175 272 276 225 259 278 217 272 332 349 5 10 6 4 331 286 232 231 233 253 316 283 244 273 314 310 298 306 318 328 328 326 329 323 321 316 315 313 310 302 302 303 302 302
142 177 133 121 242 160 149 273 281 279 319 212 302 341 352 1 6 3 0 354 287 271 244 233 245 267 336 283 280 318 311 301 298 315 330 328 324 326 327 323 321 321 320 318 311 309 309 305 304
Wind_Speed_850mb
13 17 18 8 8 11 4 7 3 4 4 4 15 11 13 2 1 4 21 17 16 13 15 13 10 9 9 10 13 16 19 20 20 18 18 17 16 18 22 26 30 32 30 28 27 28 27 25 24
12 11 9 6 10 8 8 4 2 1 18 38 28 16 11 6 9 21 21 17 9 11 12 12 12 11 10 10 11 14 19 22 20 19 17 15 16 18 23 26 29 28 27 26 23 22 20 22 22
18 11 9 8 7 6 4 9 9 17 14 1 10 12 7 5 13 13 19 13 8 8 9 7 9 10 9 8 10 18 25 24 16 12 14 13 13 18 22 22 19 19 20 18 14 15 18 21 20
5 7 13 9 6 2 7 10 15 7 13 14 18 12 12 7 7 15 20 13 8 4 3 6 9 11 11 9 11 19 29 24 18 17 15 13 14 16 19 18 17 21 21 21 22 19 14 13 15
8 8 10 9 6 4 3 16 6 2 3 3 10 6 9 18 22 21 17 12 5 3 4 4 6 7 8 10 10 21 26 28 22 16 15 14 14 14 16 12 14 19 19 20 20 18 13 12 12
6 6 10 5 4 5 6 10 6 11 9 17 16 11 8 18 20 20 14 7 6 8 9 9 9 8 11 11 14 19 23 28 31 23 18 15 17 17 15 9 13 16 15 16 19 16 14 13 10
10 8 3 6 3 4 5 4 5 6 7 7 3 6 5 20 15 14 10 6 8 12 11 13 14 11 8 9 13 18 25 31 35 26 15 14 18 22 17 16 16 14 19 22 24 24 21 18 16
8 11 6 3 6 3 12 7 21 7 7 18 14 12 12 29 20 14 4 8 14 17 16 13 12 11 9 12 12 14 25 31 35 23 13 15 20 22 19 22 26 29 30 31 28 25 24 20 17
6 9 7 13 12 9 21 9 15 5 11 5 5 18 23 33 24 10 10 14 18 20 19 16 10 12 14 11 13 18 23 31 30 24 16 16 21 21 21 24 27 32 32 28 24 23 22 20 15
6 7 15 16 12 10 21 15 20 13 13 4 17 26 37 33 23 13 14 15 17 20 21 21 13 12 17 15 14 15 20 30 28 25 25 21 21 19 22 26 29 31 25 23 26 28 27 21 14
3 5 9 11 20 19 23 16 17 20 6 24 45 48 41 32 22 15 14 16 17 20 21 21 12 9 19 17 14 13 20 28 25 23 26 25 26 21 23 27 29 23 25 27 31 28 29 25 17
2 2 13 13 21 32 23 15 6 36 10 30 36 37 39 33 23 16 12 16 16 16 15 14 13 11 15 14 13 16 22 25 24 22 28 27 26 23 25 29 31 29 30 33 36 29 27 20 18
3 5 11 10 27 26 24 27 12 40 12 31 44 44 38 32 26 19 11 16 15 15 15 13 10 13 18 19 20 21 23 20 19 22 30 29 27 25 25 30 30 30 31 33 36 35 27 18 17
4 9 5 10 25 19 12 4 6 28 25 36 44 42 36 33 25 21 17 15 14 17 16 14 11 13 18 21 22 23 17 15 13 22 33 36 33 30 29 30 32 30 32 37 40 37 29 21 16
9 8 9 1 15 4 11 10 25 32 46 48 48 43 39 36 31 29 23 19 15 18 18 14 11 10 11 17 19 16 9 10 11 19 29 35 33 32 31 31 30 32 36 39 34 29 27 23 20
10 9 4 6 22 7 20 22 31 36 56 59 56 51 50 47 40 33 31 27 21 17 16 17 13 9 10 15 14 6 2 5 11 16 25 31 30 31 32 32 31 33 37 37 34 31 27 24 17
10 5 11 12 23 8 12 18 14 45 58 56 61 58 57 53 51 47 42 36 27 21 16 16 16 12 10 17 17 15 10 8 12 14 19 26 25 28 33 36 32 34 34 36 34 32 30 26 16
8 7 7 11 14 12 14 43 8 34 49 53 64 62 62 62 64 53 47 42 35 26 19 15 19 15 14 17 21 22 19 14 15 16 17 21 22 25 31 35 36 32 32 32 32 30 27 26 10
4 6 9 7 7 12 21 27 18 32 45 33 50 71 72 69 65 64 57 50 44 36 25 16 19 16 15 18 18 22 23 21 17 16 20 20 21 24 29 35 40 34 31 31 33 32 29 23 11
6 6 10 2 4 8 0 20 4 13 36 48 55 67 72 74 74 73 66 62 57 45 28 20 18 17 13 17 19 22 23 26 22 22 22 21 22 25 24 30 36 33 28 27 29 31 30 29 26
6 8 3 4 4 4 9 14 9 6 8 36 55 62 68 76 80 83 77 72 67 52 33 25 21 18 15 17 21 25 30 29 30 26 25 22 22 24 23 28 35 33 27 26 26 28 29 31 26
7 6 9 8 7 5 6 7 7 7 14 18 44 58 74 77 76 79 83 87 75 58 35 30 28 23 18 19 22 25 28 30 30 28 28 25 23 21 22 25 30 32 28 25 23 23 24 26 28
6 7 10 7 7 3 9 6 14 10 11 12 29 54 53 62 69 84 90 77 77 54 22 30 37 33 27 20 21 25 27 30 30 29 29 25 25 23 23 24 27 28 28 25 23 25 24 27 25
11 9 14 8 5 8 11 5 11 7 7 16 16 28 32 43 49 48 53 57 53 42 35 23 48 41 31 21 21 23 23 25 31 33 32 27 26 26 27 26 28 28 26 28 24 24 23 28 27
8 11 6 9 11 7 9 3 16 12 10 9 27 43 50 54 58 43 29 45 39 44 49 16 22 50 31 18 18 17 16 20 23 24 24 28 27 25 19 23 26 27 28 28 26 24 27 31 32
6 8 10 3 2 9 8 8 10 8 6 10 18 30 39 53 60 50 27 29 34 42 51 21 31 41 32 17 14 15 16 17 16 19 22 22 22 20 19 24 26 26 28 30 32 34 34 35 37
3 3 6 12 6 4 6 13 13 4 2 10 18 27 39 53 58 52 23 18 24 40 44 24 26 23 25 16 14 13 14 15 14 18 21 22 23 23 23 26 28 29 32 34 37 40 40 40 42
5 8 5 7 0 6 9 10 10 9 11 6 15 32 41 44 54 50 26 16 11 28 37 26 5 7 10 15 18 16 17 16 18 21 22 24 23 25 26 28 31 33 34 36 38 42 42 45 47
2 2 11 9 7 8 3 13 9 9 14 12 13 22 31 35 43 36 24 9 10 20 42 49 21 3 5 15 13 21 22 23 24 26 26 26 29 28 31 33 35 37 38 37 41 45 48 51 53
2 7 9 9 8 4 7 13 5 5 12 5 7 15 24 30 32 27 18 11 6 15 29 49 40 19 12 9 14 22 27 31 31 26 26 26 32 33 35 36 37 37 39 40 43 48 51 58 63
Wind_Direction_850mb
134 126 113 89 56 65 57 12 63 47 62 80 118 124 125 75 98 166 132 122 108 64 74 65 51 28 6 1 1 357 351 346 339 336 329 327 335 334 331 330 322 315 308 302 295 292 288 283 279
98 102 94 93 78 55 313 346 39 309 119 98 96 104 70 55 84 128 132 132 106 92 74 51 40 26 13 13 6 3 352 344 334 326 316 322 334 336 333 330 327 324 315 304 293 290 285 283 286
58 31 31 79 98 125 114 41 32 143 131 153 114 89 91 114 121 122 131 125 118 84 55 37 27 15 5 349 352 4 356 339 329 324 313 324 332 337 340 340 351 2 7 360 335 301 289 285 289
22 65 63 68 83 226 139 149 151 126 85 124 116 79 86 69 94 130 143 137 123 57 356 3 8 360 350 339 347 358 4 355 339 320 316 319 321 330 341 348 24 22 16 14 8 360 338 315 287
27 71 65 83 15 5 83 138 187 325 332 87 117 97 68 83 127 134 141 136 162 274 283 331 340 337 323 318 336 354 4 5 357 330 318 319 308 322 334 348 7 8 6 7 3 5 359 352 337
46 64 56 71 51 7 37 77 44 44 67 88 88 77 55 115 149 139 150 167 206 262 270 274 271 274 295 308 326 348 2 0 359 342 315 317 312 324 326 317 338 353 354 360 0 347 325 322 322
81 66 71 97 79 46 146 66 69 63 40 18 102 68 121 154 163 157 174 211 268 292 284 295 290 277 276 294 327 355 355 359 358 353 332 319 320 328 333 327 318 335 326 325 330 320 312 312 302
79 91 69 8 185 177 149 141 153 162 197 140 141 172 182 176 169 171 194 293 304 308 314 317 307 269 266 296 323 341 350 358 1 358 335 320 318 317 311 313 320 317 322 322 321 316 309 304 299
104 69 154 193 170 201 167 143 170 229 161 184 210 189 185 172 177 186 263 291 311 322 324 330 320 243 249 279 313 327 347 356 2 2 350 334 318 306 303 307 314 316 317 318 318 315 315 313 292
87 103 213 185 183 183 167 167 170 161 161 108 147 170 168 176 186 223 272 300 316 326 325 327 319 240 243 283 293 328 344 351 359 358 360 347 333 315 312 317 320 321 320 320 315 311 307 303 285
107 172 166 209 176 168 158 178 167 164 225 191 166 170 179 186 197 232 285 320 326 328 318 315 310 246 246 273 292 322 334 345 355 357 358 353 347 335 319 323 332 334 327 322 321 314 310 296 281
324 280 171 177 186 158 162 173 219 188 235 218 193 180 182 193 209 242 299 316 325 315 313 323 304 275 245 249 286 313 327 338 346 358 359 354 349 335 330 335 337 333 328 328 331 328 322 308 278
56 347 203 203 182 174 173 184 188 199 267 196 184 184 192 201 217 235 280 301 314 328 334 322 302 255 261 271 289 307 316 330 342 360 1 358 353 345 335 337 342 340 333 332 336 336 330 316 275
95 66 358 177 168 174 165 0 218 222 207 186 190 196 207 219 234 243 260 302 322 338 329 317 301 272 262 270 279 294 303 325 351 8 2 3 357 350 345 344 341 345 347 343 341 339 335 325 308
79 71 6 96 174 188 170 266 230 220 193 191 198 209 219 232 240 251 254 282 307 328 326 317 307 286 263 258 271 282 291 335 2 3 1 4 2 2 360 356 356 353 354 350 348 346 341 325 315
61 38 34 254 159 211 157 263 223 212 188 194 202 212 223 233 242 247 253 261 273 299 320 317 311 296 255 242 257 247 321 333 348 346 352 1 4 8 11 1 358 357 358 360 355 355 357 347 330
17 205 210 329 197 139 189 277 325 199 194 196 207 216 228 236 241 242 246 251 260 277 305 325 319 296 254 237 246 254 257 292 299 313 334 351 1 7 9 7 2 358 360 2 4 2 0 2 2
209 221 224 216 213 191 213 253 335 202 200 204 209 222 230 241 247 246 247 248 249 259 281 313 319 304 263 249 254 261 262 274 289 290 310 337 348 358 2 3 2 360 359 2 7 11 12 8 30
191 198 244 225 212 156 231 266 251 239 219 218 221 225 232 243 251 252 246 247 245 244 257 291 313 301 274 266 269 263 270 265 278 291 290 314 328 341 350 357 359 358 357 2 11 11 18 26 23
148 255 268 114 12 160 68 268 331 283 223 215 227 235 240 247 252 254 253 246 244 242 248 269 292 304 291 282 272 262 264 258 264 275 277 300 319 327 334 346 355 356 356 358 3 13 15 20 24
217 201 107 58 45 89 347 313 350 333 239 222 237 249 251 255 258 258 254 252 246 239 244 269 283 296 304 283 273 266 264 270 271 279 275 291 306 319 322 337 350 354 351 350 354 5 16 20 16
332 243 122 117 60 278 11 279 314 306 296 246 244 249 254 259 263 265 260 251 244 239 242 266 270 285 305 295 280 275 264 275 281 281 278 294 303 310 310 324 343 353 348 346 351 353 360 5 13
291 61 92 96 130 107 354 56 275 338 315 283 261 261 266 272 276 276 265 257 245 224 224 261 273 276 287 303 292 282 285 283 284 289 283 299 305 314 310 307 329 341 350 344 344 358 357 350 348
120 55 39 53 70 21 334 84 294 299 290 308 313 319 323 330 328 319 268 249 236 220 218 184 262 258 270 300 311 295 292 291 291 291 287 301 307 312 320 305 317 324 330 341 330 333 347 348 342
85 65 353 3 8 241 300 22 246 289 311 272 298 322 335 344 350 347 285 239 222 205 198 146 234 248 250 277 309 307 308 309 300 302 301 305 309 314 324 313 312 313 318 320 330 320 316 317 320
40 138 145 231 263 270 318 244 262 230 303 318 319 329 340 347 355 357 315 261 223 203 191 209 203 236 240 250 290 317 324 327 312 317 306 309 321 320 320 317 322 309 309 314 307 305 308 308 307
189 42 148 105 25 40 263 295 319 272 279 347 342 340 342 354 358 358 336 272 225 200 190 237 250 247 234 236 269 300 321 329 334 334 330 330 332 331 325 321 320 315 311 308 304 303 303 299 296
134 146 34 14 163 287 291 285 244 310 292 303 327 330 352 3 7 9 2 329 261 229 199 230 281 70 227 242 261 306 305 314 328 324 332 335 336 328 323 321 318 316 313 309 305 303 302 298 299
83 340 58 116 124 175 272 276 225 259 278 217 272 332 349 5 10 6 4 331 286 232 231 233 253 316 283 244 273 314 310 298 306 318 328 328 326 329 323 321 316 315 313 310 302 302 303 302 302
142 177 133 121 242 160 149 273 281 279 319 212 302 341 352 1 6 3 0 354 287 271 244 233 245 267 336 283 280 318 311 301 298 315 330 328 324 326 327 323 321 321 320 318 311 309 309 305 304